Preview of NWS' New Version of Forecast
This preview is not operational and should not be used for support decisions.

Regional Weather Roundup (RWR)

Issued by National Weather Service (NWS)

                            
000
ASUS43 KMKX 200920
RWRWI 

WISCONSIN REGIONAL WEATHER ROUNDUP
NATIONAL WEATHER SERVICE MILWAUKEE/SULLIVAN WI
400 AM CDT THU JUN 20 2019

NOTE: "FAIR" INDICATES FEW OR NO CLOUDS BELOW 12,000 FEET WITH NO
SIGNIFICANT WEATHER AND/OR OBSTRUCTIONS TO VISIBILITY.

WIZ001-002-006>008-014>016-023>028-201000-
NORTHWEST WISCONSIN
  
CITY           SKY/WX    TMP DP  RH WIND       PRES   REMARKS
SUPERIOR ARPT  FAIR      48  47  96 CALM      29.83S                  
ASHLAND        FOG       39  39 100 SW3       29.83R VSB 1/2          
HAYWARD        FAIR      51  47  86 N7        29.82R                  
SIREN          FAIR      56  47  71 CALM      29.80R                  
CUMBERLAND     FAIR      55  45  67 E3        29.80R                  
RICE LAKE      FAIR      59  47  63 CALM      29.81R                  
CHETEK         FAIR      58  48  71 E6        29.79R                  
LADYSMITH      FAIR      51  46  83 NE3       29.81S                  
EAU CLAIRE     MOCLDY    57  52  83 NE6       29.77R                  
MENOMONIE      FAIR      55  50  83 NE5       29.78R                  
NEW RICHMOND   FAIR      60  48  65 E6        29.77S                  
OSCEOLA        FAIR      61  50  67 E3        29.79S                  
$$
 
WIZ003>005-009-010-017-018-201000-
NORTH CENTRAL WISCONSIN
  
CITY           SKY/WX    TMP DP  RH WIND       PRES   REMARKS
MANITOWISH WTR FAIR      42  42 100 CALM      29.82S                  
ARBOR VITAE    FAIR      46  44  93 CALM      29.81S                  
WOODRUFF       FAIR      46  44  93 CALM      29.81S                  
RHINELANDER    FAIR      50  43  77 CALM      29.80F                  
EAGLE RIVER    FAIR      42  42  99 CALM      29.80S                  
LAND O LAKES   FAIR      39  39 100 CALM      29.83S                  
PHILLIPS       FAIR      43  43 100 CALM      29.81R                  
TOMAHAWK       FAIR      41  40  97 CALM      29.81R                  
MEDFORD        FAIR      48  44  85 NE5       29.79R                  
MERRILL        FAIR      47  46  95 CALM      29.80R                  
$$
 
WIZ029-030-035-036-043>047-201000-
CENTRAL WISCONSIN
  
CITY           SKY/WX    TMP DP  RH WIND       PRES   REMARKS
WAUSAU         FAIR      55  41  59 N5        29.76S                  
MOSINEE        FAIR      52  43  71 N6        29.78R                  
MARSHFIELD     FAIR      54  46  74 NE6       29.76S                  
STEVENS POINT  FAIR      51  47  85 N5        29.76S                  
WAUPACA        FAIR      58  49  73 N6        29.74S                  
WAUTOMA        FAIR      56  51  84 N8        29.73F                  
WISC RAPIDS    FAIR      57  48  72 NE7       29.76S                  
CAMP DOUGLAS   FAIR      50  50 100 CALM      29.74R                  
$$
 
WIZ011>013-019>022-031-037>040-048>050-201000-
NORTHEAST WISCONSIN
  
CITY           SKY/WX    TMP DP  RH WIND       PRES   REMARKS
ANTIGO         FAIR      48  43  81 NE7       29.79S                  
SHAWANO        FAIR      57  48  72 NE8       29.75S                  
OCONTO         FAIR      53  46  77 N6        29.74S                  
STURGEON BAY   FAIR      55  48  77 N8        29.74S                  
GREEN BAY      FAIR      59  51  75 NE14      29.73S                  
MANITOWOC      CLOUDY    57  47  69 N10       29.71S                  
APPLETON       FAIR      54  45  71 N9        29.71S                  
CLINTONVILLE   FAIR      55  46  71 N7        29.75S                  
OSHKOSH        CLOUDY    61  50  67 NE14G23   29.70F                  
$$
 
WIZ032>034-041-042-053>061-201000-
SOUTHWEST WISCONSIN
  
CITY           SKY/WX    TMP DP  RH WIND       PRES   REMARKS
LA CROSSE      MOCLDY    63  57  81 CALM      29.74R                  
SPARTA         FAIR      48  47  99 CALM      29.77R                  
VIROQUA        FAIR      56  55  98 NE5       29.75S                  
BOSCOBEL       CLOUDY    59  57  93 CALM      29.73R                  
PRAIRIE DU CHI CLOUDY    56  55  96 CALM      29.73R                  
PLATTEVILLE    FAIR      57  57 100 N6        29.73R                  
$$

WIZ056-057-062-063-064-067-068-201000-
SOUTH CENTRAL WISCONSIN
  
CITY           SKY/WX    TMP DP  RH WIND       PRES   REMARKS
REEDSBURG      FAIR      57  55  94 N8        29.73R                  
BARABOO/DELLS  FAIR      57  52  84 N3        29.73R                  
LONE ROCK      FAIR      59  55  87 N6        29.71S                  
MINERAL POINT  FAIR      57  57 100 N5        29.73R                  
MADISON        FAIR      57  53  86 N8        29.67F                  
MIDDLETON      FAIR      58  55  88 N7        29.69S                  
WATERTOWN      CLOUDY    57  57  98 N8        29.66F                  
MONROE         FAIR      56  54  92 N8        29.68S                  
JANESVILLE     CLOUDY    59  55  88 N7        29.66S                  
$$
 
WIZ051-052-058>065-066-070>072-201000-
SOUTHEAST WISCONSIN
  
CITY           SKY/WX    TMP DP  RH WIND       PRES   REMARKS
MILWAUKEE      LGT RAIN  55  52  89 N14       29.65S FOG              
WAUKESHA       LGT RAIN  54  54 100 N3        29.67S                  
MILWAUKEE/TIMM RAIN      55  52  88 NE7       29.67S                  
RACINE         LGT RAIN  53  51  93 N15G23    29.66S                  
KENOSHA        LGT RAIN  56  56 100 N10       29.63S                  
FOND DU LAC    MOCLDY    61  50  67 NE14      29.70F                  
SHEBOYGAN      CLOUDY    57  48  72 NE17G26   29.69S                  
WEST BEND      CLOUDY    55  52  88 NE12G17   29.68S                  
JUNEAU         FAIR      57  53  85 N9        29.69F                  
$$

LSZ147-162-201000-
LAKE SUPERIOR
  
STATION/POSITION TIME  TEMP    WIND        PRES    WAVE
                       AIR SEA DIR/SP/G            HT/PER
                 (UTC) (F)     (DEG/KT/KT) (MB)    (FT/S)
W MID LAKE BUOY  0850   44 38     CALM     1010.3F   0
$$
 
LMZ867-665-643>646-201000-
LAKE MICHIGAN
  
STATION/POSITION TIME  TEMP    WIND        PRES    WAVE
                       AIR SEA DIR/SP/G            HT/PER
                 (UTC) (F)     (DEG/KT/KT) (MB)    (FT/S)
N MID LAKE BUOY  0900   45      20/ 10/ 12 1007.4
NORTHPORT PIER   0840   56     330/  4/  5 1007.1S
KEWAUNEE LAKESHO 0836   56      30/  8/ 14 1005.8R
SHEBOYGAN LAKESH 0900   51      10/ 20/ 24 1005.5R
MILWAUKEE LAKESH 0850   53      10/ 17/ 19   N/A
S MID LAKE BUOY  0900   50      20/ 10/ 14 1002.9
KENOSHA   LAKESH 0900   54     360/ 14/ 17 1003.4
$$

TC  - TEMPERATURE IN CELSIUS
VSB - VISIBILITY IN STATUTE MILES
WCI - WIND CHILL INDEX
HX  - HEAT INDEX